Terug naar catalogus

TITAN 3C TRANSTAGE DEB

ActiefHEO
NORAD 26781·DEBRIS·🇺🇸 United States

Gelanceerd Dec 21, 1965 vanaf Cape Canaveral Space Force Station

Loading…

Volgende Passages (komende 24 uur)

TLE

VersSource: Space-Track

Epoch: Sep 13, 2026, 01:03 UTC

1 26781U 65108AZ  26256.04394266  .00003479  00000-0  83305-2 0  9993
2 26781  27.2413 246.4269 6291367 262.7872  26.6378  3.46567256 85904

Volg TITAN 3C TRANSTAGE DEB in realtime met AllMySat

Download on the App Store